Temperature
17 17 17 17 17 17 17 17 18 18 19 18 17 17 16 16 17 16 16 16 17 17 17 17 16 16 16 16 16 16 16 16 16 16 16 15 15 15
17 17 17 17 17 17 17 17 17 17 18 18 17 17 16 16 16 16 16 16 16 16 16 16 16 16 16 16 16 16 16 16 16 15 15 15 15 15
16 16 17 17 17 17 16 17 17 17 17 17 17 16 16 16 16 16 16 16 16 16 16 16 16 16 16 16 16 16 16 16 15 15 15 15 15 15
16 16 16 16 16 16 16 16 16 16 16 16 16 16 16 16 15 15 16 16 16 16 16 16 16 16 16 16 16 16 16 15 15 15 15 15 15 15
16 16 16 16 16 16 16 16 16 16 16 16 16 16 16 15 15 15 15 15 16 16 16 16 15 15 15 15 15 15 15 15 15 15 15 15 15 15
16 16 16 16 16 16 16 16 16 16 16 16 16 16 15 15 15 15 15 15 15 16 15 15 15 15 15 15 15 15 15 15 15 15 15 15 15 15
16 16 16 16 16 16 16 16 16 15 16 16 16 16 16 15 15 15 15 15 15 15 15 15 15 15 15 15 15 15 15 15 15 15 15 15 14 14
16 16 16 16 16 16 16 15 15 15 15 15 16 16 15 15 15 15 15 15 15 15 15 15 15 15 15 15 15 15 15 15 15 14 14 14 14 14
15 15 15 15 15 15 15 15 15 15 15 15 15 15 15 15 14 14 14 14 15 15 14 15 15 15 15 15 15 15 15 14 14 14 14 14 14 14
15 15 15 15 15 15 15 14 14 14 14 14 14 14 14 14 14 14 14 14 14 14 14 14 15 15 15 14 14 14 14 14 14 14 14 14 14 13
15 15 15 14 15 15 14 14 14 14 14 14 14 14 14 14 14 14 13 14 14 14 14 14 15 15 14 14 14 14 14 14 14 14 13 13 13 13
15 15 15 15 15 15 14 14 14 14 14 14 14 14 14 14 14 13 13 14 14 14 14 14 14 14 14 14 14 14 14 13 13 13 13 13 13 13
15 15 14 14 14 14 14 14 14 14 14 13 13 14 14 14 13 13 13 13 14 14 14 13 14 14 14 14 14 13 13 13 13 13 13 13 13 12
14 14 14 14 14 14 14 14 14 13 13 13 14 14 14 13 13 13 13 13 13 13 13 13 13 13 13 13 14 13 13 13 13 13 13 12 12 12
14 14 14 13 13 13 13 13 13 13 13 13 13 13 13 13 13 13 12 12 12 13 13 12 12 13 13 13 13 13 13 13 12 12 12 12 12 12
13 13 13 13 13 13 13 13 13 13 12 13 13 13 13 13 13 13 13 13 12 13 12 12 12 12 12 12 13 13 13 12 12 12 12 12 12 12
13 13 13 13 13 13 13 12 12 12 12 12 12 12 12 12 12 12 12 12 12 12 12 12 12 12 12 12 12 12 12 12 12 12 11 11 12 11
13 12 12 12 12 13 13 12 12 12 12 12 12 12 12 12 12 12 12 12 12 12 12 12 12 11 11 12 11 11 12 12 11 11 11 11 11 11
12 12 12 12 12 12 12 12 12 12 12 12 11 11 12 12 11 11 11 11 11 12 12 11 11 11 11 11 11 11 11 11 11 11 11 11 11 11
12 12 12 12 12 12 12 12 12 11 11 11 11 11 11 11 11 11 11 11 11 11 11 11 11 10 10 11 11 10 10 10 10 10 10 10 10 10
11 11 11 11 11 11 11 11 11 11 10 10 10 10 10 10 10 10 10 10 10 10 10 10 10 10 10 10 10 10 10 10 9 9 9 9 9 9
11 11 11 10 10 10 10 10 10 10 10 10 10 10 10 10 10 10 10 10 10 10 10 10 9 9 9 9 9 9 9 9 9 9 9 8 8 9
10 10 10 10 10 10 10 10 9 9 9 9 9 9 9 9 9 9 9 9 9 9 9 9 9 8 8 8 8 8 8 8 8 8 8 8 8 8
Wind_Speed
4 4 4 3 3 3 3 4 4 5 4 2 2 2 3 2 3 4 4 6 7 7 6 7 6 6 7 7 7 7 7 7 7 7 8 9 10 11
3 3 4 4 2 3 3 4 4 5 5 3 2 3 2 3 4 4 4 6 8 8 7 7 7 7 7 7 7 7 7 7 9 8 8 8 9 10
4 4 4 4 3 3 3 4 4 4 4 4 2 2 2 4 3 5 6 6 6 9 8 8 8 8 8 8 8 7 7 7 9 10 10 9 10 11
5 5 5 4 5 5 4 4 4 4 5 4 3 3 4 4 4 5 5 5 5 8 10 10 9 9 9 9 9 8 8 8 8 9 10 10 10 11
5 5 5 5 5 5 5 5 5 4 4 5 5 3 4 3 4 5 5 5 6 6 10 12 11 10 10 10 10 9 9 9 9 9 10 10 11 11
6 6 6 6 6 5 5 5 5 5 5 6 5 4 4 3 4 5 5 5 5 5 4 7 10 13 13 12 11 11 11 10 10 10 10 10 10 11
6 6 6 5 5 5 6 5 5 5 6 5 6 5 4 3 4 5 5 5 5 5 5 5 6 7 9 12 13 12 11 11 11 11 10 10 11 11
5 5 6 5 5 7 7 7 6 6 6 6 6 6 5 6 5 6 5 5 5 3 5 6 5 6 6 6 7 9 10 10 10 10 10 10 10 11
4 4 5 3 4 6 7 9 8 8 8 8 8 8 7 6 6 7 6 7 6 4 5 7 5 6 6 4 8 9 9 10 10 10 9 9 9 10
5 5 5 5 4 6 7 7 7 7 7 8 8 8 7 6 6 8 7 8 8 7 5 7 5 6 5 4 9 9 10 10 10 10 10 9 9 10
5 5 6 6 3 5 7 7 7 6 6 6 6 7 6 5 6 6 7 7 7 6 6 6 6 5 5 5 6 10 10 10 10 10 10 10 10 10
5 5 5 6 4 4 7 7 8 7 7 6 7 8 9 9 9 9 8 8 7 6 4 5 6 5 5 4 4 5 7 10 11 12 12 11 11 8
5 5 3 4 4 6 7 7 7 8 8 8 7 7 7 7 7 8 8 8 8 7 4 4 6 6 6 5 4 5 5 5 6 8 12 12 11 8
6 6 3 3 5 6 6 6 7 8 8 8 7 7 6 6 6 7 7 8 8 8 6 5 6 6 7 7 6 5 5 5 5 5 5 10 11 11
5 4 3 4 6 7 8 8 7 7 7 7 7 7 7 6 6 6 7 7 9 9 8 8 8 7 8 8 7 6 6 5 5 6 6 6 6 7
6 5 7 8 8 7 6 6 7 6 7 7 7 7 6 6 6 6 6 6 7 7 8 9 9 9 9 9 8 8 7 6 6 6 6 6 6 6
5 6 6 5 5 5 5 5 5 6 6 7 7 7 6 6 6 6 6 7 7 7 6 6 8 8 9 9 9 8 8 7 7 5 6 7 6 6
4 5 6 5 5 5 5 5 6 6 6 7 7 7 7 7 7 6 6 7 7 7 7 5 5 5 6 6 7 8 8 7 6 6 7 7 7 6
4 5 5 5 5 5 6 6 6 6 6 7 7 7 7 7 7 7 7 7 7 8 7 5 5 6 8 8 5 7 7 6 6 6 6 7 7 5
3 4 5 5 5 6 6 6 6 6 6 7 7 7 7 7 7 8 7 7 7 7 7 6 6 7 8 7 5 4 7 7 6 6 6 5 4 1
4 4 5 6 6 6 6 6 7 6 7 7 7 7 7 8 8 8 8 7 7 8 8 7 4 4 5 4 5 5 4 4 4 4 5 5 5 5
5 5 5 5 6 6 7 7 7 6 6 6 7 7 7 7 8 8 7 6 6 7 7 5 2 3 4 5 5 5 4 3 3 4 4 5 5 5
6 5 5 6 6 6 6 7 8 7 6 6 6 6 7 6 7 7 7 6 6 6 6 5 3 3 4 5 6 5 5 4 4 3 3 3 6 5
Wind_Direction
246 240 255 260 259 267 269 275 281 283 280 252 245 233 231 225 188 223 223 187 207 218 220 222 226 223 219 217 220 224 226 228 227 227 224 219 216 214
262 279 275 269 266 260 263 269 272 274 281 286 271 252 255 239 200 237 233 188 205 215 216 219 224 226 222 220 219 220 221 223 221 222 223 220 217 215
246 245 252 271 272 262 256 263 266 268 270 277 275 268 258 266 243 243 237 233 216 199 208 214 219 221 221 222 220 218 217 220 221 220 220 219 219 218
245 251 254 251 251 263 265 264 266 268 265 272 276 259 246 251 249 255 252 245 242 186 197 209 215 218 218 219 222 221 220 222 225 225 225 223 222 222
245 247 252 257 260 261 260 264 263 258 258 262 266 266 253 249 251 253 255 261 255 201 198 206 212 217 219 220 222 222 223 223 224 225 225 226 225 224
246 249 252 254 258 262 255 255 261 261 255 257 262 258 253 247 254 261 256 242 254 250 233 224 212 214 217 217 221 222 222 222 223 225 225 224 226 227
249 251 251 252 275 275 274 265 256 257 257 258 261 258 256 259 262 264 264 258 247 259 257 243 223 226 218 214 217 223 223 221 222 223 225 224 224 226
259 259 250 234 236 238 259 273 276 262 265 266 263 264 261 260 266 269 267 264 261 243 260 263 253 247 238 227 190 201 216 223 223 222 222 224 225 225
261 267 271 261 247 254 236 230 241 244 251 262 269 271 271 265 267 263 261 267 271 272 264 266 257 252 247 205 167 192 209 216 219 218 219 222 225 226
254 259 266 270 271 273 264 256 252 243 236 243 259 268 274 278 261 262 266 259 257 250 244 263 261 258 253 218 169 187 202 208 212 216 218 221 222 222
250 254 260 260 260 271 262 263 264 258 226 223 249 264 279 270 267 262 256 255 258 247 227 250 263 266 260 240 191 186 198 203 209 214 215 215 218 219
246 243 237 251 249 245 255 262 265 269 271 249 236 242 248 242 232 244 253 256 261 259 229 238 257 260 261 245 225 207 206 202 205 208 209 210 213 226
263 257 250 183 219 236 252 265 271 278 272 265 256 251 246 243 236 233 245 256 259 258 253 235 261 256 258 263 256 241 233 227 212 210 206 204 208 225
271 272 263 171 217 237 248 266 272 270 268 267 265 263 261 259 253 248 242 248 254 261 269 261 259 262 262 260 256 248 238 233 235 234 218 191 202 211
270 300 294 237 233 239 237 244 251 259 266 267 267 267 267 268 267 258 250 245 247 250 247 244 252 255 257 261 262 255 252 246 235 236 231 223 219 209
260 249 226 229 242 261 253 241 249 260 267 267 270 271 272 266 262 266 265 256 251 250 240 237 243 251 254 256 259 257 249 248 242 243 242 238 231 226
282 271 266 260 257 258 261 262 262 260 258 265 269 270 269 266 265 265 264 263 259 260 252 238 235 239 250 258 256 252 248 247 242 235 238 245 241 238
271 268 269 270 271 274 276 273 268 266 265 265 265 267 269 268 268 264 262 259 263 264 265 260 250 250 252 242 239 251 251 248 243 228 235 242 243 236
253 268 273 275 275 275 276 276 275 273 272 269 268 266 266 268 268 267 262 260 262 265 264 255 247 249 254 258 237 226 248 250 246 239 234 238 245 239
267 276 280 282 282 283 284 283 283 280 273 270 269 269 266 264 265 266 264 265 267 267 266 258 248 250 255 263 268 253 227 241 247 247 245 244 251 248
292 290 290 292 293 293 292 290 287 285 283 279 275 274 271 266 265 267 267 260 261 265 266 267 264 257 269 268 261 256 237 216 239 251 256 255 250 242
309 305 307 307 305 302 299 296 292 289 286 280 280 280 276 273 271 269 271 271 267 271 277 281 277 254 251 248 256 263 260 243 208 194 238 253 254 250
320 319 317 316 315 311 306 302 299 297 294 291 287 283 281 278 276 273 270 269 272 274 276 276 271 261 256 255 257 257 250 247 239 224 230 211 203 209
Height
1530 1529 1529 1530 1529 1529 1529 1529 1529 1527 1526 1526 1526 1525 1524 1523 1522 1522 1521 1520 1520 1519 1519 1519 1520 1520 1520 1520 1521 1521 1521 1522 1522 1523 1523 1524 1525 1526
1527 1527 1527 1527 1527 1526 1526 1526 1526 1526 1524 1524 1523 1523 1521 1521 1520 1519 1519 1518 1517 1517 1516 1516 1517 1517 1517 1517 1517 1518 1518 1519 1519 1520 1521 1521 1522 1523
1525 1525 1524 1524 1524 1524 1524 1523 1523 1523 1522 1521 1521 1519 1518 1518 1517 1517 1517 1516 1515 1514 1513 1513 1513 1513 1514 1514 1514 1515 1515 1515 1516 1517 1517 1518 1519 1520
1522 1522 1522 1522 1521 1521 1521 1521 1521 1520 1520 1518 1518 1517 1516 1515 1514 1514 1514 1514 1513 1512 1511 1510 1510 1510 1510 1511 1511 1511 1511 1512 1513 1513 1514 1515 1515 1516
1520 1519 1519 1519 1518 1519 1518 1518 1518 1518 1517 1516 1515 1514 1514 1513 1512 1511 1511 1510 1511 1509 1508 1508 1507 1507 1507 1507 1507 1507 1508 1508 1509 1509 1510 1511 1511 1512
1517 1516 1516 1516 1516 1515 1515 1515 1515 1514 1514 1513 1513 1512 1511 1510 1509 1509 1508 1508 1507 1507 1506 1505 1504 1504 1503 1503 1504 1504 1504 1504 1504 1505 1505 1506 1507 1508
1513 1513 1513 1513 1512 1512 1513 1512 1512 1511 1511 1511 1510 1509 1508 1507 1507 1506 1506 1505 1504 1503 1503 1502 1502 1501 1500 1500 1499 1500 1500 1500 1500 1501 1501 1502 1502 1503
1510 1510 1510 1509 1509 1509 1509 1508 1508 1508 1508 1508 1507 1506 1505 1504 1503 1503 1502 1502 1501 1501 1499 1499 1499 1498 1498 1497 1496 1496 1496 1496 1496 1497 1497 1497 1498 1498
1507 1507 1507 1507 1506 1505 1505 1504 1504 1503 1503 1503 1503 1502 1502 1501 1500 1499 1498 1498 1497 1497 1496 1495 1495 1494 1494 1493 1492 1492 1492 1492 1492 1492 1493 1493 1494 1494
1504 1504 1504 1503 1503 1502 1502 1501 1500 1500 1499 1499 1498 1498 1497 1496 1495 1495 1494 1494 1493 1492 1492 1492 1491 1491 1491 1489 1488 1487 1487 1487 1488 1488 1488 1489 1489 1489
1501 1500 1500 1500 1499 1498 1498 1498 1497 1496 1495 1494 1493 1493 1492 1491 1490 1490 1490 1491 1489 1489 1488 1488 1487 1487 1486 1485 1484 1483 1483 1483 1483 1484 1484 1484 1484 1485
1497 1497 1496 1496 1495 1495 1495 1494 1493 1492 1492 1491 1489 1488 1488 1487 1486 1486 1486 1486 1485 1485 1484 1484 1483 1483 1482 1482 1481 1480 1479 1479 1479 1479 1479 1479 1480 1480
1494 1494 1493 1492 1491 1491 1491 1490 1489 1488 1488 1487 1486 1485 1484 1483 1482 1481 1481 1481 1481 1481 1481 1479 1479 1479 1479 1478 1478 1477 1476 1476 1475 1475 1475 1475 1475 1476
1491 1491 1490 1488 1487 1487 1486 1485 1485 1484 1484 1483 1482 1481 1480 1479 1478 1477 1476 1475 1474 1475 1475 1475 1475 1475 1474 1474 1473 1473 1473 1472 1472 1472 1471 1471 1471 1471
1486 1486 1485 1484 1483 1482 1481 1481 1480 1480 1479 1479 1478 1477 1476 1475 1474 1472 1471 1470 1469 1469 1470 1469 1469 1470 1470 1469 1469 1469 1469 1468 1468 1468 1468 1467 1467 1467
1482 1481 1480 1479 1479 1478 1477 1476 1476 1475 1475 1474 1473 1472 1471 1470 1469 1468 1467 1466 1465 1465 1464 1464 1463 1464 1464 1464 1464 1463 1464 1463 1463 1463 1463 1463 1463 1463
1478 1478 1477 1476 1475 1474 1473 1472 1472 1471 1470 1469 1468 1468 1466 1465 1464 1463 1462 1461 1461 1460 1459 1459 1458 1458 1458 1458 1458 1458 1458 1458 1458 1458 1458 1458 1458 1459
1474 1473 1473 1472 1471 1470 1470 1469 1468 1467 1466 1465 1464 1463 1462 1461 1459 1458 1457 1456 1455 1455 1455 1454 1453 1453 1453 1452 1452 1452 1452 1452 1452 1452 1453 1453 1453 1454
1470 1470 1469 1468 1467 1466 1465 1465 1464 1462 1461 1460 1459 1458 1457 1456 1455 1454 1452 1451 1450 1449 1449 1448 1448 1448 1447 1446 1446 1446 1446 1446 1447 1447 1447 1448 1448 1448
1467 1466 1465 1465 1463 1462 1461 1460 1459 1458 1456 1455 1454 1453 1452 1451 1450 1449 1448 1446 1445 1444 1443 1443 1442 1442 1441 1441 1441 1440 1440 1441 1442 1442 1442 1443 1443 1443
1464 1463 1462 1461 1460 1458 1457 1456 1454 1453 1452 1450 1449 1448 1447 1446 1445 1444 1443 1441 1440 1439 1438 1437 1436 1436 1436 1435 1435 1435 1435 1436 1436 1437 1437 1438 1438 1438
1461 1460 1459 1457 1456 1455 1453 1452 1450 1448 1447 1446 1444 1443 1442 1441 1440 1439 1437 1436 1435 1434 1433 1432 1432 1431 1431 1430 1430 1430 1430 1431 1431 1431 1432 1433 1433 1434
1457 1456 1455 1454 1452 1451 1449 1447 1446 1444 1443 1441 1440 1438 1437 1436 1435 1434 1432 1431 1430 1430 1429 1428 1427 1427 1426 1426 1426 1425 1426 1426 1427 1427 1428 1428 1429 1429